Terminal Aerodrome Forecast
Issued by NWS Nashville, TN

Home | Current Version | Previous Version | Text Only | Print | Product List | Glossary On
Versions: 1 2 3 4 5 6 7 8 9 10 11 12 13 14 15 16 17 18 19 20 21 22 23 24 25 26 27 28 29 30 31 32 33 34 35 36 37 38 39 40 41 42 43 44 45 46 47 48 49
000
FTUS44 KOHX 071404 AAA
TAFCSV
TAF AMD
KCSV 071404Z 0714/0812 24007KT P6SM BKN015
     FM071500 23007G15KT P6SM SCT025 BKN040
     FM080000 21007KT P6SM VCSH BKN040 OVC250
     FM080700 23003KT 5SM BR BKN040=

USA.gov is the U.S. government's official web portal to all federal, state and local government web resources and services.